Regional Weather Roundup
Issued by NWS

Home | Current Version | Previous Version | Graphics & Text | Print | Product List | Glossary On
Versions: 1 2 3 4 5 6 7 8 9 10 11 12 13 14 15 16 17 18 19 20 21 22 23 24 25 26 27 28 29 30 31 32 33 34 35 36 37 38 39 40 41 42 43 44 45 46 47 48 49 50
000
ASUS43 KLMK 101110
RWRKY
KENTUCKY REGIONAL WEATHER ROUNDUP
NATIONAL WEATHER SERVICE LOUISVILLE KY
600 AM EST WED FEB 10 2016

NOTE "FAIR" INDICATES FEW OR NO CLOUDS BELOW 12,000 FEET
WITH NO SIGNIFICANT WEATHER AND/OR OBSTRUCTIONS TO VISIBILITY.

KYZ001>023-026-027-061>063-070>075-101200-
WESTERN AND SOUTH CENTRAL KENTUCKY

CITY           SKY/WX    TMP DP  RH WIND       PRES   REMARKS
PADUCAH        CLEAR     19   6  57 NW14      30.16R WCI   6
HENDERSON      CLOUDY    18   7  62 NW16      30.13R WCI   3
OWENSBORO      CLOUDY    16   8  70 W13       30.12R WCI   2
HOPKINSVILLE   PTCLDY    17   8  68 NW7       30.12S WCI   7
BOWLING GREEN  PTCLDY    17   8  67 W8        30.11R WCI   7
GLASGOW        PTCLDY    17  10  75 W6        30.07S WCI   8
$$

KYZ024-025-028>034-038-045-046-053-101200-
NORTH CENTRAL KENTUCKY

CITY           SKY/WX    TMP DP  RH WIND       PRES   REMARKS
LOUISVILLE/SDF FLURRIES  18  11  74 W14       30.04R WCI   4
LOUISVILLE/LOU CLOUDY    18  11  74 W8        30.04R WCI   8
FORT KNOX      CLOUDY    17   9  72 W9        30.01S WCI   5
$$

KYZ035>037-039>044-047>052-055>060-089>105-101200-
NORTHEAST KENTUCKY

CITY           SKY/WX    TMP DP  RH WIND       PRES   REMARKS
LEXINGTON      CLOUDY    16  11  80 W12       29.98R WCI   3
COVINGTON      LGT SNOW  15  10  80 W9        29.95R WCI   3
FRANKFORT      CLOUDY    17   8  67 VRB7      29.99R WCI   8
$$

KYZ054-064>069-076>088-106>120-101200-
SOUTHEAST KENTUCKY

CITY           SKY/WX    TMP DP  RH WIND       PRES   REMARKS
JACKSON        CLOUDY    16  10  77 VRB5      29.94R WCI   9
LONDON         CLOUDY    15   7  70 W7        29.99R WCI   5
SOMERSET       CLOUDY    18  12  79 W8        30.04S WCI   7
MIDDLESBORO    FLURRIES  18  10  70 W5        30.01R WCI  11
MONTICELLO     LGT SNOW  18  13  80 W16       30.05R WCI   3
$$




USA.gov is the U.S. government's official web portal to all federal, state and local government web resources and services.